EHI
0 0 0 0 0 0 0 0 0 0 0 0 0 0 0 0 0 0 0 0 0 0 0 0 0 0 0 0 0 0 0 0 0 0 0 0 0 0
0 0 0 0 0 0 0 0 0 0 0 0 0 0 0 0 0 0 0 0 0 0 0 0 0 0 0 0 0 0 0 0 0 0 0 0 0 0
0 0 0 0 0 0 0 0 0 0 0 0 0 0 0 0 0 0 0 0 0 0 0 0 0 0 0 0 0 0 0 0 0 0 0 0 0 0
0 0 0 0 0 0 0 0 0 0 0 0 0 0 0 0 0 0 0 0 0 0 0 0 0 0 0 0 0 0 0 0 0 0 0 0 0 0
0 0 0 0 0 0 0 0 0 0 0 0 0 0 0 0 0 0 0 0 0 0 0 0 0 0 0 0 0 0 0 0 0 0 0 0 0 0
0 0 0 0 0 0 0 0 0 0 0 0 0 0 0 0 0 0 0 0 0 0 0 0 0 0 0 0 0 0 0 0 0 0 0 0 0 0
0 0 0 0 0 0 0 0 0 0 0 0 0 0 0 0 0 0 0 0 0 0 0 0 0 0 0 0 0 0 0 0 0 0 0 0 0 0
0 0 0 0 0 0 0 0 0 0 0 0 0 0 0 0 0 0 0 0 0 0 0 0 0 0 0 0 0 0 0 0 0 0 0 0 0 0
0 0 0 0 0 0 0 0 0 0 0 0 0 0 0 0 0 0 0 0 0 0 0 0 0 0 0 0 0 0 0 0 0 0 0 0 0 0
0 0 0 0 0 0 0 0 0 0 0 0 0 0 0 0 0 0 0 0 0 0 0 0 0 0 0 0 0 0 0 0 0 0 0 0 0 0
0 0 0 0 0 0 0 0 0 0 0 0 0 0 0 0 0 0 0 0 0 0 0 0 0 0 0 0 0 0 0 0 0 0 0 0 0 0
0 0 0 0 0 0 0 0 0 0 0 0 0 0 0 0 0 0 0 0 0 0 0 0 0 0 0 0 0 0 0 0 0 0 0 0 0 0
0 0 0 0 0 0 0 0 0 0 0 0 0 0 0 0 0 0 0 0 0 0 0 0 0 0 0 0 0 0 0 0 0 0 0 0 0 0
0 0 0 0 0 0 0 0 0 0 0 0 0 0 0 0 0 0 0 0 0 0 0 0 0 0 0 0 0 0 0 0 0 0 0 0 0 0
0 0 0 0 0 0 0 0 0 0 0 0 0 0 0 0 0 0 0 0 0 0 0 1 1 1 0 0 0 0 0 0 0 0 0 0 0 0
0 0 0 0 0 0 0 0 0 0 0 0 0 0 0 0 0 0 0 0 0 0 0 1 2 2 1 1 0 0 0 0 0 0 0 0 0 0
0 0 0 0 0 0 0 0 0 0 0 0 0 0 0 0 0 0 0 0 0 0 0 1 2 2 2 2 1 1 0 0 0 0 0 0 0 0
0 0 0 0 0 0 0 0 0 0 0 0 0 0 0 0 0 0 0 0 0 0 0 0 1 1 2 2 2 1 0 0 0 0 0 0 0 0
0 0 0 0 0 0 0 0 0 0 0 0 0 0 0 0 0 0 0 0 0 0 0 0 0 0 1 1 1 1 0 0 0 0 0 0 0 0
0 0 0 0 0 0 0 0 0 0 0 0 0 0 0 0 0 0 0 0 0 0 0 0 0 0 0 0 0 0 0 0 0 0 0 0 0 0
0 0 0 0 0 0 0 0 0 0 0 0 0 0 0 0 0 0 0 0 0 0 0 0 0 0 0 0 0 0 0 0 0 0 0 0 0 0
0 0 0 0 0 0 0 0 0 0 0 0 0 0 0 0 0 0 0 0 0 0 0 0 0 0 0 0 0 0 0 0 0 0 0 0 0 0
0 0 0 0 0 0 0 0 0 0 0 0 0 0 0 0 0 0 0 0 0 0 0 0 0 0 0 0 0 0 0 0 0 0 0 0 0 0
Wind_Speed
3 2 3 2 2 3 3 3 3 3 2 2 2 2 0 1 1 0 1 4 4 4 4 3 3 3 3 3 2 2 2 3 3 4 5 5 5 6
3 3 3 2 2 2 3 3 3 3 1 1 1 2 1 1 1 0 1 2 1 1 2 2 2 2 2 2 1 1 2 3 4 5 5 5 5 6
2 2 2 3 2 2 2 3 3 2 1 1 1 2 2 1 1 1 1 2 2 2 1 1 1 1 1 1 1 2 3 4 5 5 5 5 5 5
3 3 3 2 2 2 2 3 2 2 2 2 2 2 2 2 1 2 1 1 0 4 2 1 1 1 0 1 1 2 3 4 5 5 5 5 5 5
3 3 3 2 2 2 2 2 1 1 2 2 2 2 2 2 2 2 1 1 1 3 5 4 3 3 2 2 1 2 3 3 4 5 5 5 5 5
3 3 3 3 3 2 2 1 1 1 2 3 2 2 2 2 3 2 2 2 2 2 1 2 4 5 4 4 4 3 3 3 4 4 4 4 4 4
3 2 3 3 4 3 2 1 1 2 2 2 2 2 2 2 2 2 1 1 2 2 2 2 3 4 6 7 7 6 5 5 5 4 4 4 4 5
3 2 1 1 0 1 1 2 3 2 2 2 2 2 2 2 1 2 2 2 2 1 3 2 2 3 3 3 7 8 7 7 6 6 6 6 6 6
3 3 3 3 2 1 2 4 3 2 3 4 3 3 2 1 2 3 2 3 3 2 3 3 3 3 3 3 10 9 8 8 8 8 8 8 8 8
3 3 2 2 3 4 2 1 2 2 3 4 4 3 2 2 3 4 3 4 4 4 3 4 3 3 3 3 10 11 10 10 10 10 10 10 10 10
3 3 3 2 3 4 3 1 1 2 2 2 3 3 2 3 4 4 4 4 4 3 3 4 3 3 3 4 6 12 12 12 12 12 12 12 11 11
1 1 1 2 3 4 3 2 3 3 2 2 3 5 6 7 8 7 6 5 4 3 3 4 4 4 3 3 4 6 8 11 13 14 14 13 12 10
3 2 1 1 2 4 5 4 4 5 4 4 4 4 5 5 6 7 6 5 5 4 2 4 5 4 4 4 4 5 5 6 8 10 13 15 14 12
4 3 2 2 3 5 5 3 4 6 5 4 4 4 4 3 3 4 4 6 6 7 6 6 6 5 6 6 5 5 5 6 6 7 7 10 14 16
4 4 5 5 5 6 6 6 6 5 4 4 4 4 3 3 3 3 5 6 8 8 7 8 8 7 7 7 7 6 6 6 6 7 7 7 8 8
4 4 7 8 7 6 6 6 5 4 4 4 4 4 4 4 4 5 5 5 6 6 8 9 9 9 8 8 8 8 8 7 6 7 7 8 8 9
6 6 5 4 4 4 4 4 4 5 5 5 5 5 5 5 5 5 5 6 6 6 6 6 8 9 10 9 9 9 8 8 8 7 7 9 9 10
6 6 5 4 5 4 4 4 4 4 4 4 5 5 5 5 5 5 6 7 7 7 7 6 6 7 8 10 11 11 9 9 8 8 9 10 10 10
7 6 5 5 5 5 5 5 5 4 4 5 6 6 6 6 6 6 7 7 7 7 7 7 7 8 9 10 8 11 10 8 9 9 9 10 11 10
7 6 5 5 5 5 5 5 5 5 5 5 6 6 6 7 7 7 7 7 8 8 8 8 8 8 9 10 9 8 12 11 9 10 10 10 10 10
6 6 6 6 5 5 6 5 6 6 6 6 6 7 7 7 7 8 7 8 9 9 10 9 7 8 9 9 11 11 10 12 11 10 11 11 12 11
6 6 6 6 6 6 6 6 6 6 7 7 7 7 7 8 9 10 9 9 9 9 10 8 7 8 9 11 12 12 11 10 11 16 17 15 13 12
6 6 6 6 6 5 6 6 7 7 7 7 7 7 8 8 8 9 9 9 9 10 10 10 9 9 10 11 11 11 13 12 10 9 10 14 19 21
Wind_Direction
309 297 292 285 273 271 268 259 257 240 205 170 172 142 142 79 66 352 59 63 39 27 22 22 27 32 43 53 64 99 129 143 146 145 147 152 163 169
328 321 304 297 287 273 270 263 264 267 246 163 154 135 130 157 149 281 79 136 120 43 33 27 29 35 41 55 67 102 128 135 141 143 144 148 157 163
330 321 314 306 294 279 272 265 262 259 226 139 122 131 175 200 167 240 226 245 130 127 86 37 20 28 31 49 92 132 145 145 151 154 158 158 155 159
340 334 318 309 291 288 282 274 271 252 218 176 171 168 177 193 196 245 241 244 93 126 154 204 225 206 127 99 115 131 153 163 167 167 168 169 166 170
338 335 327 317 304 305 280 269 254 226 211 198 186 164 175 183 207 219 207 241 239 157 178 193 198 200 189 181 168 157 155 157 164 170 170 173 180 183
342 335 333 327 324 312 281 260 240 218 199 201 185 174 178 185 218 213 206 214 252 227 188 187 176 189 195 194 194 186 176 170 170 175 180 180 180 183
330 347 3 7 350 327 321 303 240 223 211 200 198 193 182 195 219 242 248 246 238 252 248 223 196 205 188 194 198 194 190 188 189 194 199 199 201 205
340 344 353 360 44 183 230 305 309 272 257 246 233 215 216 220 243 252 265 271 260 223 269 255 237 242 229 207 165 177 195 202 205 208 213 216 218 222
330 330 347 20 338 335 180 198 214 249 269 280 266 255 238 218 245 249 259 281 291 289 278 272 243 244 238 173 159 183 199 210 215 217 219 222 225 228
326 336 343 344 353 329 290 268 254 237 243 245 261 260 256 246 245 253 256 254 249 235 237 268 265 260 252 199 172 192 206 214 219 223 225 228 230 233
332 346 338 340 11 331 296 290 285 267 222 241 291 285 288 255 255 255 245 246 255 237 215 253 265 262 252 233 193 193 208 217 222 225 227 229 231 236
304 306 34 327 340 319 294 291 282 282 280 233 224 224 226 221 219 238 258 265 272 265 202 239 257 259 256 234 221 202 211 216 221 226 227 227 225 234
315 315 16 110 283 291 284 279 282 290 273 247 239 232 227 223 221 221 238 262 277 282 258 241 264 264 269 261 245 232 224 226 221 224 223 224 221 226
305 312 360 11 303 286 277 269 268 271 259 249 247 244 247 247 243 244 240 256 267 271 277 277 273 274 275 271 266 252 241 241 244 245 241 216 218 225
302 329 312 292 284 261 243 251 254 249 253 256 259 257 257 262 263 248 241 243 249 248 245 243 251 262 267 271 274 271 265 256 247 249 250 246 240 232
265 256 241 249 252 264 261 241 241 257 267 271 275 273 266 254 247 252 253 246 243 239 226 228 234 247 256 262 267 268 265 264 262 258 259 257 251 248
311 278 266 259 254 250 251 257 254 243 238 242 254 257 253 253 252 248 250 258 259 261 252 230 221 228 245 258 265 264 264 263 262 262 260 263 259 254
285 271 274 273 277 280 276 267 254 251 254 260 260 261 264 264 263 259 253 253 259 263 263 259 252 242 239 236 231 252 259 262 264 257 258 262 264 261
254 263 275 280 281 278 276 276 277 276 277 271 268 265 264 263 262 262 264 263 262 264 265 263 259 262 267 269 248 220 245 261 266 266 262 262 267 269
247 264 273 276 276 275 274 275 275 271 265 264 263 263 265 266 265 263 262 263 268 270 268 263 259 261 267 278 284 266 229 247 260 266 270 270 269 267
267 271 273 274 274 272 270 269 268 268 268 267 264 261 262 263 263 264 265 264 265 268 268 267 268 263 268 269 268 267 260 231 236 252 266 271 272 271
277 278 279 281 280 278 274 269 266 265 264 260 261 262 263 264 266 267 270 269 266 267 271 274 270 263 261 263 268 272 272 266 243 233 241 252 266 273
286 284 278 273 269 267 268 271 273 275 273 271 271 269 267 267 268 269 270 270 272 274 275 275 272 266 265 267 269 272 277 277 275 268 254 236 234 245